SBIRS GEO-5 (USA 315)

Last updated on Sun Apr 12 2026 00:02:55 GMT+0000 (Coordinated Universal Time)

1 48618U 21042A 26101.53336439 -.00000271 00000+0 00000+0 0 9991 2 48618 5.1897 328.6070 0001407 69.6430 87.3016 1.00271377 18108
UTC large
Height (km)
Speed (km/s)
/
Latitude / Longitude
Inclination (degrees)
Orbital Period (minutes)
Azimuth
Elevation
Range (km)
Doppler Factor

Next 0 passes for location: London (51.5072 / 0.1276)

Sorry there are no passes over London.
SBIRS GEO-5 (USA 315)